Skip Page Navigation
NASA JPL Caltech
NASA Logo - Jet Propulsion Laboratory + View the NASA Portal
+ Near-Earth Object (NEO) Program
Search JPL
JPL Home Earth Solar System Stars & Galaxies Technology
JPL Solar System Dynamics
BODIES ORBITS EPHEMERIDES TOOLS PHYSICAL DATA DISCOVERY FAQ SITE MAP
JPL Small-Body Database Browser
Search: [ help ]  
37593 (1991 UJ)
Classification: Main-belt Asteroid          SPK-ID: 2037593
Ephemeris | Orbit Diagram | Orbital Elements | Physical Parameters | Discovery Circumstances ]

[ show orbit diagram ]
Orbital Elements at Epoch 2457600.5 (2016-Jul-31.0) TDB
Reference: JPL 10 (heliocentric ecliptic J2000)
 Element Value Uncertainty (1-sigma)   Units 
e .2619216290290143 7.091e-08  
a 2.625211695860335 2.7886e-08 au
q 1.937611971934575 1.9305e-07 au
i 4.927335358220652 7.9671e-06 deg
node 7.484921982010696 6.6997e-05 deg
peri 330.7820738628567 6.769e-05 deg
M 324.0628326969205 1.2948e-05 deg
tp 2457755.590881089147
(2017-Jan-02.09088109)
5.7417e-05 JED
period 1553.620426485548
4.25
2.4755e-05
6.778e-08
d
yr
n .2317168298400644 3.6921e-09 deg/d
Q 3.312811419786096 3.519e-08 au
  Orbit Determination Parameters
   # obs. used (total)      597  
   data-arc span      8621 days (23.60 yr)  
   first obs. used      1991-10-12  
   last obs. used      2015-05-20  
   planetary ephem.      DE431  
   SB-pert. ephem.      SB431-BIG16  
   condition code      0  
   fit RMS      .61304  
   data source      ORB  
   producer      Otto Matic  
   solution date      2015-Jun-04 17:19:12  

Additional Information
 Earth MOID = .929833 au 
 Jupiter MOID = 2.08161 au 
 T_jup = 3.348 
[ show covariance matrix ]

Ephemeris | Orbit Diagram | Orbital Elements | Physical Parameters | Discovery Circumstances ]

Physical Parameter Table
Parameter Symbol Value Units Sigma Reference Notes
absolute magnitude H 14.9 mag n/a MPO279899  

37593 (1991 UJ)          Discovered 1991-Oct-18 by Ueda, S., Kaneda, H. at Kushiro
Reference: 20020328/Numbers.arcLast Updated: 2004-04-19

Alternate Designations
 1991 UJ = 2000 WL117 
Ephemeris | Orbit Diagram | Orbital Elements | Physical Parameters | Discovery Circumstances ]
ABOUT SSD CREDITS/AWARDS PRIVACY/COPYRIGHT GLOSSARY LINKS
FirstGov 2016-May-06 05:28 UT
(server date/time)  
NASA Home Page
Site Manager:   Ryan S. Park
Webmaster  Alan B. Chamberlin